Location: Home
(42.5358°N, 72.7383°W)
Time: 16:08:40
(UTC-04:00)

Explorer 11/Cluster Stage 4 - Pass Details

Date: 07 August 2024
Orbit: 464 x 1208 km, 28.8° (Epoch: 19 September)

Event Time Altitude Azimuth Distance (km) Brightness Sun altitude
Rises 04:01:41 0° 254° (WSW) 3,955 - -17.5°
Exits shadow 04:08:46 23° 215° (SW) 2,318 8.4 -16.5°
Maximum altitude 04:11:03 26° 191° (S) 2,178 8.4 -16.2°
Drops below altitude 10° 04:17:17 10° 139° (SE) 3,124 9.7 -15.3°
Sets 04:20:38 0° 127° (SE) 4,043 10.4 -14.9°
